Lid_Strength_Index
2 2 3 2 3 3 5 8 12 6 5 13 14 14 14 11 11 11 12 13 13 16 17 18 18 17 16 14 14 16 15 17 21 19 18 18 19 19 19 21 23 22 22 21
2 2 2 2 3 3 8 11 11 6 7 15 16 14 14 13 12 12 12 12 12 13 16 18 16 16 14 14 14 15 15 21 23 19 19 19 19 19 19 20 20 22 23 20
1 1 2 2 2 2 7 10 14 11 10 13 14 14 14 13 11 12 11 11 12 13 15 15 17 16 15 13 14 11 13 18 19 19 19 20 21 19 19 19 23 21 21 20
1 1 2 2 2 2 7 10 14 11 13 13 14 13 14 14 13 13 11 13 12 13 16 16 16 16 15 14 12 14 14 20 19 19 19 19 19 20 19 20 18 20 18 18
1 1 2 2 2 2 8 11 12 11 14 12 15 13 15 14 13 13 14 14 12 11 13 14 16 16 15 15 15 15 15 20 20 21 19 19 20 19 19 18 17 18 18 18
1 1 2 2 2 3 11 8 8 10 14 14 16 14 15 14 14 11 11 12 12 12 10 10 10 11 12 13 14 16 16 20 19 17 20 22 21 20 18 18 18 16 19 15
0 1 1 2 2 3 8 7 8 15 20 16 15 12 13 16 15 16 13 12 13 11 8 9 10 11 11 12 13 12 16 18 17 19 21 21 17 18 16 16 15 15 16 14
0 0 1 1 2 1 7 5 10 13 18 15 13 13 13 13 14 15 16 12 10 8 9 14 15 15 15 15 14 13 12 15 18 19 24 19 16 18 18 18 16 14 15 14
-0 0 1 1 1 1 6 8 7 10 17 18 11 13 13 17 17 16 14 10 8 9 13 14 17 18 16 18 17 15 14 13 15 21 23 24 17 18 17 15 18 14 13 13
-0 -0 0 0 1 1 5 7 5 7 12 12 11 16 15 12 13 16 13 13 12 9 13 15 16 16 16 18 18 18 17 16 17 19 23 21 16 17 16 19 16 15 14 14
-1 -0 -0 0 1 1 5 7 5 8 12 12 9 9 12 13 14 19 16 14 14 13 14 14 14 15 16 16 16 17 16 17 17 18 19 20 16 17 17 14 16 16 16 15
-1 -0 -0 -0 0 0 3 8 5 5 8 12 7 7 7 8 9 11 14 14 13 14 15 16 15 13 15 16 18 15 16 14 16 15 16 14 15 15 14 15 15 16 16 16
-1 -1 -1 -1 -0 -0 1 6 5 5 9 12 11 10 7 6 6 6 14 17 9 10 10 14 15 16 13 16 16 16 15 14 15 15 14 15 15 14 14 13 13 15 15 15
-1 -1 -1 -1 -1 -1 0 5 5 6 9 14 15 7 8 6 6 7 7 9 8 8 9 13 15 17 13 14 13 13 13 13 15 16 15 15 14 13 11 12 13 14 15 15
-1 -1 -1 -1 -1 -1 2 4 3 2 5 16 17 10 7 6 6 7 7 8 9 10 11 13 15 13 14 14 13 14 13 14 14 14 12 12 12 10 11 12 13 12 13 14
-1 -1 -1 -1 -1 -1 3 6 5 1 2 7 13 11 11 7 6 7 8 8 9 9 11 14 14 12 13 17 17 12 11 11 10 11 11 11 11 11 12 12 12 13 14 14
-1 -1 -1 -1 -1 2 5 9 4 -0 0 6 10 12 13 8 8 11 11 10 13 12 14 13 12 12 11 14 17 14 13 13 11 11 11 12 12 12 12 13 13 15 15 15
-1 -1 -1 -2 -1 1 3 2 -1 -0 3 4 9 13 15 11 16 14 13 12 11 11 13 17 16 14 12 16 14 13 16 16 12 18 18 14 14 14 16 16 16 17 17 16
-1 -1 -1 4 8 12 9 0 -0 1 4 9 11 13 14 14 16 17 10 14 16 15 14 13 14 16 15 18 21 21 22 22 23 24 19 17 17 16 18 18 19 19 18 20
-0 4 11 14 11 1 2 7 6 6 7 9 13 12 15 11 11 13 12 11 10 16 12 14 13 14 21 24 25 24 24 25 26 27 22 24 23 24 23 22 21 21 21 22
8 15 15 10 4 8 14 14 13 12 13 13 16 18 19 11 11 12 9 11 10 14 12 13 20 23 22 23 24 24 26 26 27 26 26 26 26 26 26 25 24 24 24 24
8 10 10 12 15 18 19 23 20 20 18 16 18 18 17 17 13 13 12 14 17 18 14 14 20 21 24 24 25 25 26 28 28 27 27 27 28 28 28 28 27 26 27 27
12 16 18 17 19 20 23 25 22 23 24 23 22 20 22 18 15 14 14 14 17 15 22 20 21 20 22 25 26 27 27 29 31 31 30 30 30 30 31 30 29 29 29 28
18 20 20 21 23 25 24 23 23 21 20 23 21 25 23 25 19 20 17 18 20 24 27 23 21 21 23 24 25 26 27 28 29 29 30 31 31 31 31 31 30 31 30 29
21 22 23 25 23 27 28 29 26 24 20 21 25 25 20 24 20 16 18 21 26 27 25 22 21 23 24 24 25 26 27 27 28 29 30 30 31 32 31 30 29 28 30 30
24 27 25 31 27 25 28 32 28 23 20 21 24 27 24 23 20 20 19 22 24 21 25 24 24 25 26 27 27 26 26 27 28 27 27 28 29 29 29 30 30 28 27 27
25 27 38 33 30 27 31 31 28 22 27 24 29 23 20 21 25 26 25 21 22 28 28 27 25 25 25 26 26 26 27 28 28 28 28 27 27 27 28 29 27 28 28 29